SCP
0 0 0 0 0 0 0 0 0 0 0 0 0 0 0 0 0 0 0 0 0 0 0 0 0 0 0 0 1 1 1 1 1 0 0 0 1 1 1 0 1 1 1 1 1 1 1 1 1
1 0 0 0 0 0 0 0 0 0 0 0 0 0 0 0 0 0 0 0 0 0 0 0 1 1 1 0 1 1 1 0 0 0 0 0 1 1 1 1 1 1 1 1 1 1 1 1 1
0 0 0 0 0 0 0 0 0 0 0 0 0 0 0 0 0 0 0 0 0 0 0 0 1 1 1 1 1 1 0 0 0 0 0 1 1 1 1 1 1 1 0 0 0 0 1 1 1
0 0 0 0 0 0 0 0 0 0 0 0 0 0 0 0 0 0 0 0 0 0 0 0 1 1 1 1 1 1 1 0 0 0 1 1 1 1 1 1 1 1 0 0 0 0 1 1 1
0 0 0 0 0 0 0 0 0 0 0 0 0 0 0 0 0 0 0 0 0 0 0 1 1 1 1 1 1 1 1 1 0 0 1 1 1 1 1 1 1 1 1 1 1 1 1 1 1
0 0 0 0 0 0 0 0 0 0 0 0 0 0 0 0 0 0 0 0 0 0 0 1 1 1 1 1 1 1 1 1 0 0 0 1 1 1 1 1 1 1 1 1 1 1 1 1 1
0 0 0 0 0 0 0 0 0 0 0 0 0 0 0 0 0 0 0 0 0 0 0 0 0 0 1 1 0 0 0 0 0 0 0 0 0 0 0 1 1 1 1 1 1 1 1 1 1
0 0 0 0 0 0 0 0 0 0 0 0 0 0 0 0 0 0 0 0 0 0 0 0 0 0 0 0 0 0 0 0 0 0 0 0 0 0 0 0 0 1 1 1 1 1 1 1 1
0 0 0 0 0 0 0 0 0 0 0 0 0 0 0 0 0 0 0 0 0 0 0 0 0 0 0 0 0 0 0 0 0 0 0 0 0 0 0 0 0 1 1 1 1 1 1 1 1
0 0 0 0 0 0 0 0 0 0 0 0 0 0 0 0 0 0 0 0 0 0 0 0 0 0 0 0 0 0 0 0 0 0 0 0 0 0 0 0 0 0 0 1 1 1 1 1 1
0 0 0 0 0 0 0 0 0 0 0 0 0 0 0 0 0 0 0 0 0 0 0 0 0 0 0 0 0 0 0 0 0 0 0 0 0 0 0 0 0 0 0 0 0 0 0 0 0
0 0 0 0 0 0 0 0 0 0 0 0 0 0 0 0 0 0 0 0 0 0 0 0 0 0 0 0 0 0 0 0 0 0 0 0 0 0 0 0 0 0 0 0 0 0 0 0 0
0 0 0 0 0 0 0 0 0 0 0 0 0 0 0 0 0 0 0 0 0 0 0 0 0 0 0 0 0 0 0 0 0 0 0 0 0 0 0 0 0 0 0 0 0 0 0 0 0
0 0 0 0 1 0 0 0 0 0 0 0 0 0 0 0 0 0 0 0 0 0 0 0 0 0 0 0 0 0 0 0 0 0 0 0 0 0 0 0 0 0 0 0 0 0 0 0 0
0 0 0 1 1 0 0 0 0 0 0 0 0 0 0 0 0 0 0 0 0 0 0 0 0 0 0 0 0 0 0 0 0 0 0 0 0 0 0 0 0 0 0 0 0 0 0 0 0
0 0 0 0 0 0 0 0 0 0 0 0 0 0 0 0 0 0 0 0 0 0 0 0 0 0 0 0 0 0 0 0 0 0 0 0 0 0 0 0 0 0 0 0 0 0 1 1 0
0 0 0 0 0 0 0 0 0 0 0 1 1 1 0 0 0 0 0 0 0 0 0 0 0 0 0 0 0 0 0 0 0 0 0 0 0 0 0 0 0 0 0 0 0 0 1 1 1
0 0 0 0 0 0 0 0 0 0 0 1 1 1 0 0 0 0 0 0 0 0 0 0 0 0 0 0 0 0 0 0 0 0 0 0 0 0 0 0 0 0 0 0 0 0 0 0 1
0 0 0 0 0 0 0 0 0 0 0 1 1 1 0 0 0 0 0 0 0 0 0 0 0 0 0 0 0 0 0 0 0 0 0 0 0 0 0 0 0 0 0 0 0 0 0 0 0
0 0 0 0 0 0 0 0 0 0 0 0 0 0 0 0 0 0 0 0 0 0 0 0 0 0 0 0 0 0 0 0 0 0 0 0 0 0 0 0 0 0 0 0 0 0 0 0 0
0 0 0 0 0 0 0 0 0 0 0 0 0 0 0 0 0 0 0 0 0 0 0 0 0 0 0 0 0 0 0 0 0 0 0 0 0 0 0 0 0 0 0 0 0 0 0 0 0
0 0 0 0 0 0 0 0 0 0 0 0 0 0 0 0 0 0 0 0 0 0 0 0 0 0 0 0 0 0 0 0 0 0 0 0 0 0 0 0 0 0 0 0 0 0 0 0 0
0 0 0 0 0 0 0 0 0 0 0 0 0 0 0 0 0 0 0 0 0 0 0 0 0 0 0 0 0 0 0 0 0 0 0 0 0 0 0 0 0 0 0 0 0 0 0 0 0
0 0 0 0 0 0 0 0 0 0 0 0 0 0 0 0 0 0 0 0 0 0 0 0 0 0 0 0 0 0 0 0 0 0 0 0 0 0 0 0 0 0 0 0 0 0 0 0 0
0 0 0 0 0 0 0 0 0 0 0 0 0 0 0 0 1 0 0 0 0 0 0 0 0 0 0 0 0 0 0 0 0 0 0 0 0 0 0 0 0 0 0 0 0 0 0 0 0
0 0 0 0 0 0 0 0 0 0 0 0 0 0 0 1 1 0 0 0 0 0 0 0 0 0 0 0 0 0 0 0 0 0 0 0 0 0 0 0 0 0 0 0 0 0 0 0 0
0 0 0 0 0 0 0 0 0 0 0 0 0 0 0 0 0 0 0 0 0 0 0 0 0 0 0 0 0 0 0 0 0 0 0 0 0 0 0 0 0 0 0 0 0 0 0 0 0
0 0 0 0 0 0 0 0 0 0 0 0 0 0 0 0 0 0 0 0 0 0 0 0 0 0 0 0 0 0 0 0 0 0 0 0 0 0 0 0 0 0 0 0 0 0 0 0 0
0 0 0 0 0 0 0 0 0 0 0 0 0 0 0 0 0 0 0 0 0 0 0 0 0 0 0 0 0 0 0 0 0 0 0 0 0 0 0 0 0 0 0 0 0 0 0 0 0
0 0 0 0 0 0 0 0 0 0 0 0 0 0 0 0 0 0 0 0 0 0 0 0 0 0 0 0 0 0 0 0 0 0 0 0 0 0 0 0 0 0 0 0 0 0 0 0 0
Wind_Speed
4 2 2 2 4 4 3 1 1 2 5 5 9 10 9 6 5 6 3 7 9 6 5 7 10 10 10 10 10 10 10 10 9 9 9 9 9 9 8 8 8 8 8 8 7 7 7 8 7
2 1 2 3 5 3 1 1 3 4 7 7 8 8 8 7 6 7 5 7 9 7 5 7 10 10 10 10 9 9 9 9 8 8 8 8 8 8 8 8 8 8 7 7 7 7 7 7 7
2 0 3 3 3 3 3 2 4 5 7 5 6 6 6 5 5 5 7 10 9 7 5 6 10 9 9 9 9 9 8 8 8 8 7 7 7 7 7 7 7 7 6 6 6 6 6 6 6
2 3 4 5 5 1 4 4 5 6 7 6 6 6 4 3 4 7 11 11 9 7 5 6 10 9 9 9 8 8 8 8 8 7 7 7 7 6 6 6 6 6 6 6 6 5 5 5 5
3 4 5 3 3 2 1 2 4 5 4 6 8 6 4 3 9 12 11 10 10 6 5 6 10 9 8 8 8 7 7 7 7 7 6 6 6 6 6 6 6 6 5 5 5 5 5 5 6
4 4 4 2 2 1 1 4 7 8 8 8 8 7 3 4 8 10 10 9 8 8 5 5 9 9 8 8 7 7 6 6 5 5 5 5 5 5 5 5 5 5 5 5 5 4 4 5 6
3 4 3 4 3 1 2 3 5 6 6 5 6 6 4 4 7 9 9 8 7 7 5 4 4 5 7 7 6 6 5 4 3 3 3 3 4 4 4 4 4 4 4 4 4 4 4 5 6
4 4 3 2 3 1 1 2 4 6 6 7 6 7 6 6 7 8 8 7 6 5 4 4 3 3 2 3 5 4 4 3 2 1 2 2 2 2 3 3 3 4 4 4 4 4 4 5 6
4 5 2 2 4 2 2 4 3 4 6 4 3 5 8 10 8 7 6 5 5 5 4 4 4 3 3 2 3 2 2 2 1 1 1 1 1 1 0 1 2 3 3 3 3 4 5 6 6
5 4 1 2 4 4 3 4 4 5 7 6 6 6 9 8 8 8 7 6 6 6 5 4 4 4 3 2 1 0 0 1 1 1 1 1 0 1 0 1 2 3 4 4 4 5 5 5 3
3 4 2 3 3 4 4 3 3 7 5 7 11 11 9 7 7 7 6 5 6 6 5 5 4 4 3 1 1 0 1 1 2 2 1 1 2 1 2 1 2 3 4 3 4 4 3 3 2
3 3 4 3 3 3 3 3 4 4 6 8 11 11 9 8 7 7 6 5 5 5 5 5 5 4 3 2 2 1 1 1 1 1 1 2 2 1 1 1 1 2 2 2 2 2 3 3 4
3 2 4 5 5 5 6 5 5 4 7 9 9 8 8 7 6 6 6 6 6 5 5 5 5 4 3 3 2 2 1 1 1 2 2 2 2 2 1 1 2 2 2 3 3 3 4 4 4
3 4 5 4 4 3 6 4 5 4 7 8 8 7 7 7 7 6 6 6 5 5 5 5 5 5 4 3 2 2 2 2 2 3 3 3 2 2 2 2 2 2 2 3 3 4 4 4 4
4 5 3 2 2 2 6 4 4 6 8 8 6 5 6 6 7 7 7 7 7 6 6 6 6 5 5 4 3 2 2 3 3 2 3 3 3 3 3 3 3 2 3 4 4 4 4 4 5
3 3 1 1 1 2 5 3 3 7 9 7 5 4 4 5 6 6 6 6 6 6 6 6 7 6 5 4 4 3 3 4 3 3 3 4 4 4 4 3 3 3 3 3 4 3 4 4 4
2 2 2 1 1 2 4 4 4 6 8 7 6 5 4 4 5 5 6 7 6 6 6 6 6 6 5 5 4 4 4 4 3 3 3 4 4 4 4 3 3 3 3 3 4 3 3 4 4
3 3 2 3 2 2 3 4 5 6 7 7 6 5 5 5 6 6 7 7 6 6 6 6 5 5 5 4 4 3 4 3 3 3 3 4 3 4 4 3 4 4 4 4 4 4 3 3 3
3 3 2 2 2 2 3 3 6 7 7 7 6 6 6 6 5 5 7 7 6 6 6 5 6 4 4 3 3 3 2 2 2 3 4 4 4 4 4 3 4 4 4 3 4 4 5 3 3
3 3 1 0 1 2 2 3 5 7 9 9 9 8 8 7 5 6 6 6 6 6 6 5 6 5 4 3 3 2 2 1 1 2 3 4 4 4 4 4 3 3 4 4 4 3 3 2 1
1 3 4 2 0 1 2 1 2 4 5 7 8 8 8 10 9 8 7 6 6 6 6 6 5 5 4 5 4 4 3 3 3 3 2 3 4 4 4 4 3 3 3 3 3 3 3 2 1
1 2 4 4 3 1 2 1 5 5 5 8 9 8 9 9 9 9 9 7 7 6 5 6 6 5 5 5 6 5 3 2 1 1 1 2 3 4 4 4 4 3 3 3 2 2 2 3 1
3 2 2 2 2 1 1 2 5 3 6 10 10 10 11 10 11 11 10 9 7 6 6 6 6 5 5 5 6 6 4 2 1 1 2 2 3 3 4 3 3 3 2 2 2 2 2 2 2
3 4 4 4 3 1 3 3 5 5 9 8 9 10 10 10 11 10 8 8 6 6 6 6 6 5 5 5 6 6 6 4 4 2 2 1 1 2 3 3 3 3 2 2 2 3 3 2 2
4 5 3 3 2 4 2 2 6 7 8 9 10 10 9 10 11 10 9 8 7 7 7 7 7 5 5 5 5 6 6 6 5 4 3 2 1 1 1 2 2 2 2 2 3 3 3 3 3
3 6 5 3 2 3 1 3 6 4 5 6 8 9 8 9 10 11 11 10 9 9 8 8 7 6 6 6 5 5 5 4 3 4 3 3 2 1 1 2 3 3 3 3 3 3 3 3 3
3 2 4 4 0 1 3 3 4 2 3 4 6 8 8 9 10 10 10 9 10 10 9 9 8 7 6 6 5 5 5 4 4 4 3 2 2 2 2 3 3 3 3 3 4 3 3 3 3
4 5 4 3 2 1 3 2 3 3 3 4 6 8 8 8 9 9 9 9 9 9 8 8 8 8 6 6 6 5 5 5 4 4 4 3 3 2 3 3 3 3 3 3 4 3 3 4 3
2 2 4 3 3 3 2 5 6 8 7 7 8 9 9 10 10 10 9 9 9 7 8 8 7 6 6 6 5 5 5 5 5 4 4 4 3 3 3 3 3 3 3 3 3 3 3 4 3
4 4 6 4 2 3 2 6 5 7 6 7 7 7 8 9 10 10 9 8 8 8 8 8 8 7 7 6 6 5 5 5 5 4 4 4 4 3 4 4 4 3 3 3 3 3 3 3 3
Wind_Direction
313 327 94 65 57 55 61 20 33 49 63 56 71 80 82 59 82 124 149 135 130 127 119 116 112 107 102 98 95 92 90 88 86 84 83 81 80 79 80 84 86 84 81 78 77 80 83 85 82
322 342 76 63 80 78 42 26 74 79 129 121 78 75 76 72 80 108 128 141 134 130 126 123 117 110 104 100 97 93 91 90 89 88 87 85 84 83 82 84 87 86 84 82 81 81 80 82 80
301 162 81 68 85 132 146 173 113 85 97 89 76 55 71 101 111 125 148 144 132 127 127 132 123 116 110 104 99 95 94 93 92 91 91 90 89 87 85 86 87 87 86 85 85 84 79 77 77
60 48 54 69 79 110 158 172 129 103 68 59 91 67 63 94 121 131 140 136 131 134 137 137 128 121 115 109 104 100 97 93 93 93 93 92 91 90 90 88 89 91 89 87 86 83 80 73 72
76 74 65 65 73 50 77 123 103 95 76 77 91 89 67 61 115 130 141 140 139 143 148 143 136 131 124 117 111 107 103 100 96 94 92 89 89 89 93 91 90 93 94 93 92 88 83 76 74
59 69 86 108 108 87 67 92 88 91 107 105 101 105 99 118 126 142 146 144 146 151 157 154 148 142 134 127 123 117 110 103 100 96 93 92 94 95 96 92 92 95 94 94 97 94 91 85 76
101 88 114 137 121 73 100 96 104 122 127 124 120 105 126 149 146 149 145 142 146 153 156 162 159 149 145 142 139 134 123 114 108 102 99 100 102 100 100 101 99 97 95 94 92 85 86 81 72
127 97 85 109 123 120 64 92 117 122 115 123 120 130 161 180 154 138 138 139 145 152 160 164 168 163 157 159 158 148 132 121 117 114 107 109 105 100 103 105 104 97 94 93 89 79 79 75 71
87 75 95 152 149 156 123 94 76 78 99 93 88 134 158 156 140 128 128 130 147 157 167 167 170 171 176 191 183 156 116 90 66 14 29 81 43 23 27 112 111 97 92 82 78 74 75 67 67
83 98 144 165 153 152 131 112 114 90 86 85 88 104 132 138 139 143 150 152 158 166 174 168 166 165 172 182 124 64 355 14 27 17 5 46 74 315 69 24 62 67 69 58 58 55 58 56 45
108 136 130 103 120 127 118 101 93 116 120 148 145 148 148 143 147 150 156 153 158 162 160 159 163 160 154 138 123 74 16 16 21 28 70 90 78 45 43 30 24 35 49 40 35 37 44 54 57
97 110 118 121 106 101 105 97 83 120 159 159 152 153 150 148 155 159 155 154 148 140 145 144 145 140 131 121 116 106 75 34 30 33 79 91 82 59 53 54 42 45 53 58 49 50 48 63 69
99 111 102 107 96 96 93 90 94 93 126 137 139 141 149 154 156 158 155 147 134 127 130 132 132 130 122 109 100 88 73 61 45 45 53 85 98 88 78 74 70 65 72 72 64 63 63 66 62
125 101 98 105 105 102 106 100 96 128 132 134 137 144 150 152 153 151 149 142 137 132 129 129 124 124 117 106 99 90 81 68 50 42 53 73 89 91 85 72 66 64 72 78 80 77 74 68 66
109 96 71 65 97 124 105 71 122 154 142 134 138 145 147 158 155 156 160 153 147 139 133 131 123 113 107 101 97 90 76 72 60 43 51 65 74 81 84 75 69 65 77 82 77 69 66 69 64
69 85 85 294 125 147 113 150 184 159 146 144 154 155 154 156 160 162 154 145 144 134 127 128 121 110 103 101 93 81 71 69 59 49 50 54 63 80 83 80 72 75 78 79 82 73 75 68 63
45 139 179 246 202 153 129 168 196 170 153 159 168 167 170 162 162 160 152 149 143 138 133 123 117 113 104 98 88 78 72 64 55 53 51 46 55 72 83 81 83 83 77 73 88 73 82 83 74
203 181 178 192 233 143 145 173 176 172 165 175 174 174 179 173 179 164 154 151 145 141 137 126 120 118 111 96 82 68 58 49 44 48 50 51 53 64 76 79 78 82 80 71 79 82 71 81 86
169 160 164 205 205 134 161 176 185 182 173 178 180 184 187 194 189 158 152 147 141 136 135 133 130 129 117 103 97 88 72 48 41 45 52 56 58 65 77 81 76 81 87 92 96 94 81 69 84
130 128 118 217 173 143 180 221 198 189 191 189 187 190 189 190 175 160 154 150 149 147 146 143 141 138 131 127 129 129 122 89 61 33 40 46 59 66 87 91 90 91 93 88 90 97 94 76 62
118 162 175 181 62 73 118 325 228 212 198 200 197 195 192 184 177 170 161 156 150 154 160 155 150 140 131 122 105 88 65 47 36 30 26 24 57 67 81 94 97 97 102 109 106 109 114 117 30
212 200 161 145 123 234 170 227 259 213 208 212 207 199 198 187 175 172 166 159 162 168 158 148 148 140 134 128 124 123 121 126 171 162 60 35 51 63 71 89 98 96 96 106 118 116 120 123 112
183 134 115 124 125 56 227 164 271 204 214 218 208 199 196 186 178 176 172 168 167 161 153 151 147 141 139 135 134 128 127 142 135 95 75 47 34 47 66 83 93 97 97 105 95 94 101 116 131
128 64 46 52 69 315 229 175 260 217 211 204 197 196 193 185 180 175 169 158 158 156 150 150 147 145 143 141 138 137 141 140 128 119 106 63 32 29 47 78 85 94 97 104 106 98 98 100 102
94 86 48 14 12 258 246 185 244 231 208 193 185 191 191 179 171 168 166 164 165 164 161 158 154 156 154 149 148 151 153 150 153 158 155 141 92 50 41 74 86 86 94 97 97 92 87 91 98
167 139 151 178 218 279 289 234 257 250 196 180 174 176 178 176 174 174 175 173 173 173 167 163 164 164 161 159 161 159 156 151 158 166 161 163 168 174 146 104 94 92 94 89 87 84 85 88 92
138 165 169 138 159 281 276 289 312 44 100 142 158 162 172 180 181 179 176 175 175 176 174 172 170 168 169 169 162 160 160 158 162 162 156 160 170 164 140 115 99 90 89 89 91 81 79 86 85
157 152 103 113 142 270 285 261 234 211 188 175 169 174 180 179 181 177 176 178 180 178 172 171 173 173 171 169 169 165 167 165 164 153 154 162 165 148 137 120 110 98 87 88 88 87 84 88 79
162 147 128 135 160 161 251 270 225 199 191 184 186 182 184 183 181 177 177 179 179 173 170 173 177 170 167 170 168 160 165 163 155 153 163 162 155 152 150 148 132 119 105 101 98 93 93 93 83
176 181 150 149 195 171 180 269 253 194 190 181 186 187 184 185 179 174 173 173 174 177 177 179 178 175 176 174 166 168 166 160 157 165 170 162 156 154 151 149 135 130 124 116 115 116 107 110 111